,,,PA_Meas_PMT16A,,PR_Meas_QMR101_102,,RH_Meas_QMH101,,SR_Meas_QMS101,,TA_Meas_QMH101,,GenWind,,GenWind,
date,time,status,PA,status,PR,status,RH,status,SR,status,TA,status,DirAvg,status,SpdAvg,
2008-07-13, 00:00:05,VALID,1008.56,VALID,0,VALID,93.9645,VALID,0,VALID,24.1404,VALID,146,VALID,0,
2008-07-13, 00:01:05,VALID,1008.58,VALID,0,VALID,93.9493,VALID,0.105969,VALID,24.1014,VALID,146,VALID,0,
2008-07-13, 00:02:05,VALID,1008.55,VALID,0,VALID,93.8883,VALID,0,VALID,24.1032,VALID,146,VALID,0,
2008-07-13, 00:03:05,VALID,1008.6,VALID,0,VALID,93.812,VALID,0.105969,VALID,24.0624,VALID,147,VALID,0,
2008-07-13, 00:04:05,VALID,1008.61,VALID,0,VALID,93.934,VALID,0,VALID,24.0643,VALID,146,VALID,0,
2008-07-13, 00:05:05,VALID,1008.63,VALID,0,VALID,94.056,VALID,0.105969,VALID,24.0429,VALID,147,VALID,0,
2008-07-13, 00:06:05,VALID,1008.61,VALID,0,VALID,94.0789,VALID,0,VALID,24.0235,VALID,147,VALID,0,
2008-07-13, 00:07:05,VALID,1008.64,VALID,0,VALID,94.1247,VALID,0.105969,VALID,24.0253,VALID,146,VALID,0,
2008-07-13, 00:08:05,VALID,1008.66,VALID,0,VALID,94.1933,VALID,0,VALID,24.0235,VALID,146,VALID,0,
2008-07-13, 00:09:05,VALID,1008.66,VALID,0,VALID,94.1704,VALID,0.105969,VALID,23.9845,VALID,146,VALID,0,
2008-07-13, 00:10:05,VALID,1008.66,VALID,0,VALID,94.2009,VALID,0.105969,VALID,23.965,VALID,146,VALID,0,
2008-07-13, 00:11:05,VALID,1008.67,VALID,0,VALID,94.2314,VALID,0,VALID,23.9863,VALID,146,VALID,0,
2008-07-13, 00:12:05,VALID,1008.7,VALID,0,VALID,94.2162,VALID,0.105969,VALID,23.9455,VALID,146,VALID,0,
2008-07-13, 00:13:05,VALID,1008.71,VALID,0,VALID,94.2086,VALID,0.105969,VALID,23.926,VALID,146,VALID,0,
2008-07-13, 00:14:05,VALID,1008.68,VALID,0,VALID,94.1247,VALID,0,VALID,23.9297,VALID,147,VALID,0,
2008-07-13, 00:15:05,VALID,1008.69,VALID,0,VALID,94.0865,VALID,0,VALID,23.8889,VALID,146,VALID,0,
2008-07-13, 00:16:05,VALID,1008.69,VALID,0,VALID,94.1171,VALID,0,VALID,23.8694,VALID,147,VALID,0,
2008-07-13, 00:17:05,VALID,1008.69,VALID,0,VALID,94.1704,VALID,0,VALID,23.8499,VALID,147,VALID,0,
2008-07-13, 00:18:05,VALID,1008.66,VALID,0,VALID,94.2696,VALID,0,VALID,23.8694,VALID,146,VALID,0,
2008-07-13, 00:19:05,VALID,1008.62,VALID,0,VALID,94.3839,VALID,0,VALID,23.8889,VALID,147,VALID,0,
2008-07-13, 00:20:05,VALID,1008.6,VALID,0,VALID,94.4831,VALID,0,VALID,23.8889,VALID,147,VALID,0,
2008-07-13, 00:21:05,VALID,1008.57,VALID,0,VALID,94.5136,VALID,0,VALID,23.8889,VALID,146,VALID,0,
2008-07-13, 00:22:05,VALID,1008.56,VALID,0,VALID,94.5822,VALID,0,VALID,23.8694,VALID,147,VALID,0.0492188,
2008-07-13, 00:23:05,VALID,1008.55,VALID,0,VALID,94.6432,VALID,0,VALID,23.8889,VALID,147,VALID,0,
2008-07-13, 00:24:05,VALID,1008.55,VALID,0,VALID,94.7424,VALID,0,VALID,23.9084,VALID,147,VALID,0,
2008-07-13, 00:25:05,VALID,1008.55,VALID,0,VALID,94.8568,VALID,0,VALID,23.9473,VALID,147,VALID,0,
2008-07-13, 00:26:05,VALID,1008.54,VALID,0,VALID,94.8949,VALID,0,VALID,23.9863,VALID,147,VALID,0,
2008-07-13, 00:27:05,VALID,1008.55,VALID,0,VALID,94.9711,VALID,0,VALID,24.0058,VALID,167,VALID,0.169922,
2008-07-13, 00:28:05,VALID,1008.54,VALID,0,VALID,94.9788,VALID,0,VALID,24.0448,VALID,167,VALID,0.229687,
2008-07-13, 00:29:05,VALID,1008.54,VALID,0,VALID,94.9788,VALID,0,VALID,24.0448,VALID,167,VALID,0.226172,
2008-07-13, 00:30:05,VALID,1008.51,VALID,0,VALID,94.9864,VALID,0,VALID,24.0643,VALID,167,VALID,0.113281,
2008-07-13, 00:31:05,VALID,1008.48,VALID,0,VALID,94.9864,VALID,0,VALID,24.0837,VALID,168,VALID,0.342578,
2008-07-13, 00:32:05,VALID,1008.52,VALID,0,VALID,94.9788,VALID,0,VALID,24.1227,VALID,178,VALID,0.223438,
2008-07-13, 00:33:05,VALID,1008.53,VALID,0,VALID,94.9788,VALID,0,VALID,24.1227,VALID,192,VALID,0.353125,
2008-07-13, 00:34:05,VALID,1008.52,VALID,0,VALID,94.9559,VALID,0,VALID,24.1227,VALID,193,VALID,0.334766,
2008-07-13, 00:35:05,VALID,1008.53,VALID,0,VALID,94.9025,VALID,0,VALID,24.1635,VALID,222,VALID,0.569141,
2008-07-13, 00:36:05,VALID,1008.5,VALID,0,VALID,94.8491,VALID,0,VALID,24.1599,VALID,222,VALID,0.228125,
2008-07-13, 00:37:05,VALID,1008.49,VALID,0,VALID,94.7729,VALID,0,VALID,24.1812,VALID,218,VALID,0.175,
2008-07-13, 00:38:05,VALID,1008.5,VALID,0,VALID,94.6966,VALID,0,VALID,24.1617,VALID,218,VALID,0.212109,
2008-07-13, 00:39:05,VALID,1008.48,VALID,0,VALID,94.6127,VALID,0,VALID,24.1812,VALID,218,VALID,0.0183594,
2008-07-13, 00:40:04,VALID,1008.46,VALID,0,VALID,94.5822,VALID,0,VALID,24.1812,VALID,210,VALID,0.375781,
2008-07-13, 00:41:04,VALID,1008.49,VALID,0,VALID,94.5365,VALID,0,VALID,24.2007,VALID,209,VALID,0.439844,
2008-07-13, 00:42:04,VALID,1008.47,VALID,0,VALID,94.506,VALID,0,VALID,24.2202,VALID,198,VALID,0.588672,
2008-07-13, 00:43:04,VALID,1008.46,VALID,0,VALID,94.3916,VALID,0,VALID,24.2415,VALID,192,VALID,0.268359,
2008-07-13, 00:44:04,VALID,1008.47,VALID,0,VALID,94.2772,VALID,0,VALID,24.2396,VALID,197,VALID,0.244141,
2008-07-13, 00:45:04,VALID,1008.44,VALID,0,VALID,94.2238,VALID,0,VALID,24.2573,VALID,197,VALID,0.442969,
2008-07-13, 00:46:04,VALID,1008.46,VALID,0,VALID,94.1857,VALID,0.105969,VALID,24.2573,VALID,198,VALID,0.528516,
2008-07-13, 00:47:04,VALID,1008.43,VALID,0,VALID,94.1018,VALID,0.105969,VALID,24.2768,VALID,198,VALID,0.266406,
2008-07-13, 00:48:04,VALID,1008.43,VALID,0,VALID,94.0637,VALID,0,VALID,24.2768,VALID,198,VALID,0.347266,
2008-07-13, 00:49:04,VALID,1008.4,VALID,0,VALID,94.0027,VALID,0,VALID,24.2963,VALID,198,VALID,0.128906,
2008-07-13, 00:50:04,VALID,1008.37,VALID,0,VALID,93.9645,VALID,0.105969,VALID,24.3352,VALID,198,VALID,0.472656,
2008-07-13, 00:51:04,VALID,1008.39,VALID,0,VALID,93.8502,VALID,0.105969,VALID,24.3352,VALID,198,VALID,0.244531,
2008-07-13, 00:52:04,VALID,1008.4,VALID,0,VALID,93.751,VALID,0.105969,VALID,24.3566,VALID,198,VALID,0.0601562,
2008-07-13, 00:53:04,VALID,1008.38,VALID,0,VALID,93.6748,VALID,0.105969,VALID,24.3352,VALID,198,VALID,0,
2008-07-13, 00:54:04,VALID,1008.39,VALID,0,VALID,93.6137,VALID,0.105969,VALID,24.3139,VALID,198,VALID,0.148438,
2008-07-13, 00:55:04,VALID,1008.36,VALID,0,VALID,93.5832,VALID,0.105969,VALID,24.3371,VALID,198,VALID,0,
2008-07-13, 00:56:04,VALID,1008.38,VALID,0,VALID,93.6061,VALID,0,VALID,24.3352,VALID,198,VALID,0,
2008-07-13, 00:57:04,VALID,1008.36,VALID,0,VALID,93.5451,VALID,0.105969,VALID,24.3352,VALID,198,VALID,0,
2008-07-13, 00:58:04,VALID,1008.35,VALID,0,VALID,93.5375,VALID,0.105969,VALID,24.3547,VALID,198,VALID,0.293359,
2008-07-13, 00:59:04,VALID,1008.35,VALID,0,VALID,93.4612,VALID,0.105969,VALID,24.3352,VALID,198,VALID,0.223438,
2008-07-13, 01:00:04,VALID,1008.32,VALID,0,VALID,93.446,VALID,0,VALID,24.3371,VALID,198,VALID,0.179297,
2008-07-13, 01:01:04,VALID,1008.34,VALID,0,VALID,93.3316,VALID,0,VALID,24.3176,VALID,162,VALID,0.141797,
2008-07-13, 01:02:04,VALID,1008.33,VALID,0,VALID,93.3697,VALID,0,VALID,24.2981,VALID,162,VALID,0,
2008-07-13, 01:03:04,VALID,1008.31,VALID,0,VALID,93.4231,VALID,0,VALID,24.2981,VALID,162,VALID,0.146484,
2008-07-13, 01:04:04,VALID,1008.28,VALID,0,VALID,93.4917,VALID,0,VALID,24.2981,VALID,162,VALID,0.217578,
2008-07-13, 01:05:04,VALID,1008.3,VALID,0,VALID,93.446,VALID,0,VALID,24.2981,VALID,162,VALID,0,
2008-07-13, 01:06:04,VALID,1008.28,VALID,0,VALID,93.4155,VALID,0,VALID,24.2591,VALID,162,VALID,0,
2008-07-13, 01:07:04,VALID,1008.28,VALID,0,VALID,93.3392,VALID,0,VALID,24.2591,VALID,162,VALID,0,
2008-07-13, 01:08:04,VALID,1008.27,VALID,0,VALID,93.3087,VALID,0,VALID,24.2202,VALID,162,VALID,0,
2008-07-13, 01:09:04,VALID,1008.26,VALID,0,VALID,93.3468,VALID,0,VALID,24.2202,VALID,162,VALID,0,
2008-07-13, 01:10:04,VALID,1008.27,VALID,0,VALID,93.4689,VALID,0,VALID,24.2007,VALID,162,VALID,0,
2008-07-13, 01:11:04,VALID,1008.26,VALID,0,VALID,93.3926,VALID,0,VALID,24.1812,VALID,162,VALID,0,
2008-07-13, 01:12:04,VALID,1008.26,VALID,0,VALID,93.4307,VALID,0,VALID,24.1812,VALID,159,VALID,0.0960938,
2008-07-13, 01:13:04,VALID,1008.29,VALID,0,VALID,93.1562,VALID,0,VALID,24.1227,VALID,159,VALID,0.00742187,
2008-07-13, 01:14:04,VALID,1008.29,VALID,0,VALID,93.1638,VALID,0,VALID,24.0837,VALID,159,VALID,0.146875,
2008-07-13, 01:15:04,VALID,1008.3,VALID,0,VALID,93.2172,VALID,0.105969,VALID,24.0429,VALID,159,VALID,0.280469,
2008-07-13, 01:16:04,VALID,1008.26,VALID,0,VALID,93.202,VALID,0.105969,VALID,24.004,VALID,159,VALID,0.225781,
2008-07-13, 01:17:04,VALID,1008.31,VALID,0,VALID,93.1333,VALID,0.105969,VALID,23.965,VALID,159,VALID,0.267969,
2008-07-13, 01:18:04,VALID,1008.29,VALID,0,VALID,93.0723,VALID,0.105969,VALID,23.8871,VALID,134,VALID,0.278516,
2008-07-13, 01:19:04,VALID,1008.31,VALID,0,VALID,93.4612,VALID,0.105969,VALID,23.8481,VALID,134,VALID,0.221484,
2008-07-13, 01:20:04,VALID,1008.28,VALID,0,VALID,93.5985,VALID,0.105969,VALID,23.8286,VALID,134,VALID,0.204297,
2008-07-13, 01:21:04,VALID,1008.25,VALID,0,VALID,93.8044,VALID,0,VALID,23.8091,VALID,134,VALID,0.162891,
2008-07-13, 01:22:04,VALID,1008.25,VALID,0,VALID,93.812,VALID,0.105969,VALID,23.7896,VALID,134,VALID,0,
2008-07-13, 01:23:04,VALID,1008.22,VALID,0,VALID,93.9798,VALID,0.105969,VALID,23.7701,VALID,134,VALID,0,
2008-07-13, 01:24:04,VALID,1008.24,VALID,0,VALID,94.1323,VALID,0.105969,VALID,23.7701,VALID,134,VALID,0.232031,
2008-07-13, 01:25:04,VALID,1008.21,VALID,0,VALID,94.1704,VALID,0.105969,VALID,23.7507,VALID,134,VALID,0.223828,
2008-07-13, 01:26:04,VALID,1008.23,VALID,0,VALID,94.1476,VALID,0.105969,VALID,23.7117,VALID,134,VALID,0.319531,
2008-07-13, 01:27:04,VALID,1008.19,VALID,0,VALID,94.2009,VALID,0.105969,VALID,23.6922,VALID,134,VALID,0.330469,
2008-07-13, 01:28:04,VALID,1008.19,VALID,0,VALID,94.2238,VALID,0.105969,VALID,23.6515,VALID,134,VALID,0.344531,
2008-07-13, 01:29:04,VALID,1008.16,VALID,0,VALID,94.2162,VALID,0.105969,VALID,23.6338,VALID,133,VALID,0.318359,
2008-07-13, 01:30:04,VALID,1008.17,VALID,0,VALID,94.2009,VALID,0,VALID,23.5771,VALID,133,VALID,0.289063,
2008-07-13, 01:31:04,VALID,1008.16,VALID,0,VALID,94.2619,VALID,0,VALID,23.5576,VALID,133,VALID,0.00976563,
2008-07-13, 01:32:04,VALID,1008.15,VALID,0,VALID,94.3229,VALID,0,VALID,23.5594,VALID,133,VALID,0.0246094,
2008-07-13, 01:33:04,VALID,1008.15,VALID,0,VALID,94.3916,VALID,0,VALID,23.5186,VALID,133,VALID,0.205078,
2008-07-13, 01:34:04,VALID,1008.15,VALID,0,VALID,94.4373,VALID,0,VALID,23.5204,VALID,133,VALID,0.2,
2008-07-13, 01:35:04,VALID,1008.14,VALID,0,VALID,94.4983,VALID,0,VALID,23.5009,VALID,133,VALID,0.248047,
2008-07-13, 01:36:04,VALID,1008.15,VALID,0,VALID,94.5822,VALID,0,VALID,23.4602,VALID,101,VALID,0.342578,
2008-07-13, 01:37:04,VALID,1008.12,VALID,0,VALID,94.6661,VALID,0,VALID,23.4602,VALID,59,VALID,0.282422,
2008-07-13, 01:38:04,VALID,1008.11,VALID,0,VALID,94.7347,VALID,0,VALID,23.4602,VALID,59,VALID,0.224609,
2008-07-13, 01:39:04,VALID,1008.09,VALID,0,VALID,94.7652,VALID,0,VALID,23.462,VALID,59,VALID,0.123828,
2008-07-13, 01:40:04,VALID,1008.05,VALID,0,VALID,94.7957,VALID,0,VALID,23.462,VALID,59,VALID,0.16875,
2008-07-13, 01:41:04,VALID,1008.07,VALID,0,VALID,94.8186,VALID,0,VALID,23.4212,VALID,59,VALID,0.249219,
2008-07-13, 01:42:04,VALID,1008.06,VALID,0,VALID,94.872,VALID,0,VALID,23.4212,VALID,59,VALID,0.203906,
2008-07-13, 01:43:04,VALID,1008.06,VALID,0,VALID,94.9025,VALID,0,VALID,23.4212,VALID,59,VALID,0.187891,
2008-07-13, 01:44:04,VALID,1008.03,VALID,0,VALID,94.9254,VALID,0,VALID,23.4212,VALID,59,VALID,0.223438,
2008-07-13, 01:45:04,VALID,1008.04,VALID,0,VALID,94.9254,VALID,0,VALID,23.4212,VALID,59,VALID,0.162109,
2008-07-13, 01:46:04,VALID,1008,VALID,0,VALID,94.9025,VALID,0,VALID,23.3628,VALID,59,VALID,0.319531,
2008-07-13, 01:47:04,VALID,1008.05,VALID,0,VALID,94.9406,VALID,0,VALID,23.3433,VALID,59,VALID,0.375781,
2008-07-13, 01:48:04,VALID,1008.05,VALID,0,VALID,94.9864,VALID,0,VALID,23.3433,VALID,59,VALID,0.230078,
2008-07-13, 01:49:04,VALID,1008.03,VALID,0,VALID,95.0016,VALID,0,VALID,23.3433,VALID,59,VALID,0.397266,
2008-07-13, 01:50:04,VALID,1008.01,VALID,0,VALID,95.1008,VALID,0,VALID,23.3628,VALID,42,VALID,0.527344,
2008-07-13, 01:51:04,VALID,1008.02,VALID,0,VALID,95.1313,VALID,0,VALID,23.3628,VALID,40,VALID,0.216406,
2008-07-13, 01:52:04,VALID,1008.03,VALID,0,VALID,95.1236,VALID,0,VALID,23.3628,VALID,40,VALID,0,
2008-07-13, 01:53:04,VALID,1008,VALID,0,VALID,95.1465,VALID,0,VALID,23.3628,VALID,40,VALID,0,
2008-07-13, 01:54:04,VALID,1008,VALID,0,VALID,95.1542,VALID,0,VALID,23.3433,VALID,40,VALID,0,
2008-07-13, 01:55:04,VALID,1008.01,VALID,0,VALID,95.177,VALID,0,VALID,23.3433,VALID,40,VALID,0,
2008-07-13, 01:56:04,VALID,1008.02,VALID,0,VALID,95.177,VALID,0,VALID,23.3433,VALID,40,VALID,0,
2008-07-13, 01:57:04,VALID,1008.02,VALID,0,VALID,95.1847,VALID,0,VALID,23.3238,VALID,40,VALID,0,
2008-07-13, 01:58:04,VALID,1008.01,VALID,0,VALID,95.1999,VALID,0,VALID,23.3238,VALID,40,VALID,0,
2008-07-13, 01:59:04,VALID,1008.04,VALID,0,VALID,95.1923,VALID,0,VALID,23.3238,VALID,40,VALID,0,
2008-07-13, 02:00:04,VALID,1008.04,VALID,0,VALID,95.2228,VALID,0,VALID,23.3433,VALID,40,VALID,0,
2008-07-13, 02:01:04,VALID,1008.05,VALID,0,VALID,95.2457,VALID,0,VALID,23.3433,VALID,40,VALID,0,
2008-07-13, 02:02:04,VALID,1008.04,VALID,0,VALID,95.2685,VALID,0,VALID,23.3433,VALID,40,VALID,0,
2008-07-13, 02:03:04,VALID,1008.02,VALID,0,VALID,95.2762,VALID,0,VALID,23.3433,VALID,40,VALID,0,
2008-07-13, 02:04:04,VALID,1008.02,VALID,0,VALID,95.3143,VALID,0,VALID,23.3823,VALID,40,VALID,0,
2008-07-13, 02:05:04,VALID,1008.02,VALID,0,VALID,95.3295,VALID,0,VALID,23.3823,VALID,40,VALID,0,
2008-07-13, 02:06:04,VALID,1008.02,VALID,0,VALID,95.3219,VALID,0,VALID,23.3823,VALID,40,VALID,0,
2008-07-13, 02:07:04,VALID,1008.02,VALID,0,VALID,95.3219,VALID,0,VALID,23.4212,VALID,22,VALID,0,
2008-07-13, 02:08:04,VALID,1008.02,VALID,0,VALID,95.3448,VALID,0,VALID,23.4212,VALID,21,VALID,0,
2008-07-13, 02:09:04,VALID,1008.05,VALID,0,VALID,95.3372,VALID,0,VALID,23.4212,VALID,21,VALID,0,
2008-07-13, 02:10:04,VALID,1008.02,VALID,0,VALID,95.3372,VALID,0,VALID,23.4017,VALID,21,VALID,0,
2008-07-13, 02:11:04,VALID,1008.04,VALID,0,VALID,95.3372,VALID,0,VALID,23.4212,VALID,21,VALID,0,
2008-07-13, 02:12:04,VALID,1008.02,VALID,0,VALID,95.3143,VALID,0,VALID,23.423,VALID,21,VALID,0,
2008-07-13, 02:13:04,VALID,1008.04,VALID,0,VALID,95.3143,VALID,0,VALID,23.4017,VALID,21,VALID,0,
2008-07-13, 02:14:04,VALID,1008.03,VALID,0,VALID,95.3143,VALID,0,VALID,23.423,VALID,21,VALID,0,
2008-07-13, 02:15:04,VALID,1008.01,VALID,0,VALID,95.2762,VALID,0.105969,VALID,23.4,VALID,21,VALID,0,
2008-07-13, 02:16:04,VALID,1008.01,VALID,0,VALID,95.2838,VALID,0,VALID,23.4,VALID,21,VALID,0,
2008-07-13, 02:17:04,VALID,1008,VALID,0,VALID,95.2838,VALID,0,VALID,23.4,VALID,51,VALID,0.331641,
2008-07-13, 02:18:04,VALID,1007.97,VALID,0,VALID,95.2914,VALID,0.105969,VALID,23.4389,VALID,51,VALID,0.123047,
2008-07-13, 02:19:04,VALID,1007.96,VALID,0,VALID,95.2914,VALID,0.105969,VALID,23.4194,VALID,51,VALID,0,
2008-07-13, 02:20:04,VALID,1008,VALID,0,VALID,95.2914,VALID,0.105969,VALID,23.4194,VALID,51,VALID,0.241797,
2008-07-13, 02:21:04,VALID,1007.98,VALID,0,VALID,95.2762,VALID,0.105969,VALID,23.4194,VALID,51,VALID,0,
2008-07-13, 02:22:04,VALID,1008,VALID,0,VALID,95.2762,VALID,0.105969,VALID,23.4194,VALID,51,VALID,0.000390625,
2008-07-13, 02:23:04,VALID,1007.97,VALID,0,VALID,95.2609,VALID,0.105969,VALID,23.4389,VALID,51,VALID,0,
2008-07-13, 02:24:04,VALID,1007.96,VALID,0,VALID,95.2685,VALID,0.105969,VALID,23.4389,VALID,51,VALID,0,
2008-07-13, 02:25:04,VALID,1007.97,VALID,0,VALID,95.2762,VALID,0.105969,VALID,23.4389,VALID,51,VALID,0,
2008-07-13, 02:26:04,VALID,1007.95,VALID,0,VALID,95.2533,VALID,0.105969,VALID,23.4389,VALID,51,VALID,0,
2008-07-13, 02:27:04,VALID,1007.96,VALID,0,VALID,95.2762,VALID,0.105969,VALID,23.4372,VALID,51,VALID,0,
2008-07-13, 02:28:04,VALID,1007.97,VALID,0,VALID,95.2609,VALID,0.105969,VALID,23.4389,VALID,51,VALID,0,
2008-07-13, 02:29:04,VALID,1007.99,VALID,0,VALID,95.2304,VALID,0.105969,VALID,23.4389,VALID,51,VALID,0.102734,
2008-07-13, 02:30:04,VALID,1007.95,VALID,0,VALID,95.2228,VALID,0,VALID,23.4212,VALID,51,VALID,0.150391,
2008-07-13, 02:31:04,VALID,1007.95,VALID,0,VALID,95.2075,VALID,0,VALID,23.4212,VALID,51,VALID,0,
2008-07-13, 02:32:04,VALID,1008,VALID,0,VALID,95.1999,VALID,0,VALID,23.4407,VALID,51,VALID,0,
2008-07-13, 02:33:04,VALID,1007.97,VALID,0,VALID,95.1999,VALID,0,VALID,23.4212,VALID,51,VALID,0.003125,
2008-07-13, 02:34:04,VALID,1007.95,VALID,0,VALID,95.1694,VALID,0,VALID,23.4212,VALID,51,VALID,0,
2008-07-13, 02:35:04,VALID,1007.97,VALID,0,VALID,95.1694,VALID,0,VALID,23.4212,VALID,51,VALID,0,
2008-07-13, 02:36:04,VALID,1007.96,VALID,0,VALID,95.177,VALID,0,VALID,23.4017,VALID,51,VALID,0.122266,
2008-07-13, 02:37:04,VALID,1007.94,VALID,0,VALID,95.1389,VALID,0,VALID,23.4212,VALID,51,VALID,0.283594,
2008-07-13, 02:38:04,VALID,1007.95,VALID,0,VALID,95.116,VALID,0,VALID,23.4017,VALID,51,VALID,0.205078,
2008-07-13, 02:39:04,VALID,1007.97,VALID,0,VALID,95.1313,VALID,0,VALID,23.423,VALID,51,VALID,0.235547,
2008-07-13, 02:40:04,VALID,1007.97,VALID,0,VALID,95.1008,VALID,0,VALID,23.3628,VALID,51,VALID,0.406641,
2008-07-13, 02:41:04,VALID,1007.98,VALID,0,VALID,95.0626,VALID,0,VALID,23.3628,VALID,51,VALID,0.408594,
2008-07-13, 02:42:04,VALID,1007.99,VALID,0,VALID,95.1084,VALID,0,VALID,23.361,VALID,51,VALID,0.285156,
2008-07-13, 02:43:04,VALID,1008,VALID,0,VALID,95.1236,VALID,0,VALID,23.3823,VALID,45,VALID,0.373437,
2008-07-13, 02:44:04,VALID,1008.01,VALID,0,VALID,95.116,VALID,0,VALID,23.3823,VALID,45,VALID,0.355078,
2008-07-13, 02:45:04,VALID,1008.03,VALID,0,VALID,95.1236,VALID,0,VALID,23.3628,VALID,45,VALID,0.346484,
2008-07-13, 02:46:04,VALID,1008,VALID,0,VALID,95.1313,VALID,0,VALID,23.3628,VALID,40,VALID,0.264062,
2008-07-13, 02:47:04,VALID,1008.05,VALID,0,VALID,95.1084,VALID,0,VALID,23.3415,VALID,23,VALID,0.33125,
2008-07-13, 02:48:04,VALID,1008.07,VALID,0,VALID,95.1236,VALID,0,VALID,23.3433,VALID,23,VALID,0.0773437,
2008-07-13, 02:49:04,VALID,1008.06,VALID,0,VALID,95.1236,VALID,0,VALID,23.3628,VALID,23,VALID,0.283594,
2008-07-13, 02:50:04,VALID,1008.06,VALID,0,VALID,95.1465,VALID,0,VALID,23.3433,VALID,23,VALID,0.121875,
2008-07-13, 02:51:04,VALID,1008.08,VALID,0,VALID,95.1389,VALID,0,VALID,23.3628,VALID,23,VALID,0.0726563,
2008-07-13, 02:52:04,VALID,1008.09,VALID,0,VALID,95.1313,VALID,0,VALID,23.3628,VALID,23,VALID,0.152734,
2008-07-13, 02:53:04,VALID,1008.1,VALID,0,VALID,95.1313,VALID,0,VALID,23.3628,VALID,23,VALID,0.148438,
2008-07-13, 02:54:04,VALID,1008.09,VALID,0,VALID,95.1465,VALID,0,VALID,23.3433,VALID,23,VALID,0.145703,
2008-07-13, 02:55:04,VALID,1008.07,VALID,0,VALID,95.1618,VALID,0.105969,VALID,23.3433,VALID,23,VALID,0,
2008-07-13, 02:56:04,VALID,1008.04,VALID,0,VALID,95.1313,VALID,0,VALID,23.3433,VALID,23,VALID,0.266406,
2008-07-13, 02:57:04,VALID,1008.04,VALID,0,VALID,95.1389,VALID,0,VALID,23.3433,VALID,23,VALID,0.119922,
2008-07-13, 02:58:04,VALID,1008.02,VALID,0,VALID,95.1313,VALID,0,VALID,23.3433,VALID,23,VALID,0.0613281,
2008-07-13, 02:59:04,VALID,1008.08,VALID,0,VALID,95.1618,VALID,0,VALID,23.3433,VALID,23,VALID,0.254687,
2008-07-13, 03:00:04,VALID,1008.06,VALID,0,VALID,95.1694,VALID,0,VALID,23.3823,VALID,23,VALID,0,
2008-07-13, 03:01:04,VALID,1008.05,VALID,0,VALID,95.1618,VALID,0,VALID,23.3628,VALID,23,VALID,0.200391,
2008-07-13, 03:02:04,VALID,1008.06,VALID,0,VALID,95.1542,VALID,0,VALID,23.3433,VALID,23,VALID,0.084375,
2008-07-13, 03:03:04,VALID,1008.1,VALID,0,VALID,95.1542,VALID,0,VALID,23.3628,VALID,23,VALID,0,
2008-07-13, 03:04:04,VALID,1008.11,VALID,0,VALID,95.1465,VALID,0,VALID,23.3628,VALID,37,VALID,0.194141,
2008-07-13, 03:05:04,VALID,1008.09,VALID,0,VALID,95.1847,VALID,0,VALID,23.3628,VALID,37,VALID,0.219531,
2008-07-13, 03:06:04,VALID,1008.12,VALID,0,VALID,95.1847,VALID,0,VALID,23.3823,VALID,37,VALID,0.43125,
2008-07-13, 03:07:04,VALID,1008.15,VALID,0,VALID,95.1694,VALID,0,VALID,23.3823,VALID,38,VALID,0.326562,
2008-07-13, 03:08:04,VALID,1008.15,VALID,0,VALID,95.1618,VALID,0,VALID,23.3823,VALID,38,VALID,0.186719,
2008-07-13, 03:09:04,VALID,1008.18,VALID,0,VALID,95.1465,VALID,0,VALID,23.384,VALID,38,VALID,0.151562,
2008-07-13, 03:10:04,VALID,1008.15,VALID,0,VALID,95.1389,VALID,0,VALID,23.3628,VALID,39,VALID,0.474609,
2008-07-13, 03:11:04,VALID,1008.2,VALID,0,VALID,95.1389,VALID,0,VALID,23.3823,VALID,39,VALID,0.228906,
2008-07-13, 03:12:04,VALID,1008.2,VALID,0,VALID,95.1465,VALID,0,VALID,23.3823,VALID,39,VALID,0.0046875,
2008-07-13, 03:13:04,VALID,1008.21,VALID,0,VALID,95.1542,VALID,0,VALID,23.4017,VALID,39,VALID,0.0804688,
2008-07-13, 03:14:04,VALID,1008.21,VALID,0,VALID,95.1618,VALID,0,VALID,23.3823,VALID,39,VALID,0,
2008-07-13, 03:15:04,VALID,1008.25,VALID,0,VALID,95.1618,VALID,0,VALID,23.3823,VALID,39,VALID,0,
2008-07-13, 03:16:04,VALID,1008.23,VALID,0,VALID,95.1618,VALID,0,VALID,23.3823,VALID,39,VALID,0.0746094,
2008-07-13, 03:17:04,VALID,1008.24,VALID,0,VALID,95.1618,VALID,0,VALID,23.3823,VALID,39,VALID,0.180859,
2008-07-13, 03:18:04,VALID,1008.24,VALID,0,VALID,95.1389,VALID,0,VALID,23.3628,VALID,39,VALID,0.363672,
2008-07-13, 03:19:04,VALID,1008.23,VALID,0,VALID,95.1465,VALID,0,VALID,23.3628,VALID,39,VALID,0.173828,
2008-07-13, 03:20:04,VALID,1008.22,VALID,0,VALID,95.1389,VALID,0,VALID,23.3628,VALID,39,VALID,0.0925781,
2008-07-13, 03:21:04,VALID,1008.21,VALID,0,VALID,95.1618,VALID,0,VALID,23.3628,VALID,39,VALID,0.122266,
2008-07-13, 03:22:04,VALID,1008.16,VALID,0,VALID,95.1313,VALID,0,VALID,23.3628,VALID,39,VALID,0,
2008-07-13, 03:23:04,VALID,1008.19,VALID,0,VALID,95.1465,VALID,0,VALID,23.3628,VALID,39,VALID,0,
2008-07-13, 03:24:04,VALID,1008.17,VALID,0,VALID,95.1465,VALID,0,VALID,23.3628,VALID,39,VALID,0.0632813,
2008-07-13, 03:25:04,VALID,1008.18,VALID,0,VALID,95.1542,VALID,0,VALID,23.3433,VALID,39,VALID,0,
2008-07-13, 03:26:04,VALID,1008.17,VALID,0,VALID,95.1618,VALID,0,VALID,23.3628,VALID,39,VALID,0,
2008-07-13, 03:27:04,VALID,1008.17,VALID,0,VALID,95.1694,VALID,0,VALID,23.3433,VALID,39,VALID,0,
2008-07-13, 03:28:04,VALID,1008.2,VALID,0,VALID,95.1465,VALID,0,VALID,23.3433,VALID,39,VALID,0.0175781,
2008-07-13, 03:29:04,VALID,1008.17,VALID,0,VALID,95.1618,VALID,0,VALID,23.322,VALID,39,VALID,0,
2008-07-13, 03:30:04,VALID,1008.17,VALID,0,VALID,95.1694,VALID,0,VALID,23.3433,VALID,39,VALID,0.231641,
2008-07-13, 03:31:04,VALID,1008.16,VALID,0,VALID,95.177,VALID,0,VALID,23.3433,VALID,39,VALID,0.215234,
2008-07-13, 03:32:04,VALID,1008.17,VALID,0,VALID,95.1999,VALID,0,VALID,23.3238,VALID,39,VALID,0.185547,
2008-07-13, 03:33:04,VALID,1008.15,VALID,0,VALID,95.1923,VALID,0,VALID,23.3433,VALID,41,VALID,0.311328,
2008-07-13, 03:34:04,VALID,1008.14,VALID,0,VALID,95.2152,VALID,0,VALID,23.3238,VALID,41,VALID,0.0921875,
2008-07-13, 03:35:04,VALID,1008.14,VALID,0,VALID,95.2152,VALID,0,VALID,23.3238,VALID,41,VALID,0,
2008-07-13, 03:36:04,VALID,1008.15,VALID,0,VALID,95.2075,VALID,0,VALID,23.3238,VALID,41,VALID,0,
2008-07-13, 03:37:04,VALID,1008.12,VALID,0,VALID,95.2152,VALID,0,VALID,23.3238,VALID,41,VALID,0,
2008-07-13, 03:38:04,VALID,1008.14,VALID,0,VALID,95.2152,VALID,0,VALID,23.3238,VALID,41,VALID,0,
2008-07-13, 03:39:04,VALID,1008.16,VALID,0,VALID,95.1923,VALID,0.105969,VALID,23.3043,VALID,41,VALID,0,
2008-07-13, 03:40:04,VALID,1008.17,VALID,0,VALID,95.1847,VALID,0,VALID,23.3043,VALID,41,VALID,0,
2008-07-13, 03:41:04,VALID,1008.2,VALID,0,VALID,95.1618,VALID,0,VALID,23.2848,VALID,41,VALID,0,
2008-07-13, 03:42:04,VALID,1008.22,VALID,0,VALID,95.1542,VALID,0,VALID,23.2848,VALID,41,VALID,0,
2008-07-13, 03:43:04,VALID,1008.23,VALID,0,VALID,95.1694,VALID,0,VALID,23.2459,VALID,41,VALID,0,
2008-07-13, 03:44:04,VALID,1008.24,VALID,0,VALID,95.1923,VALID,0,VALID,23.2459,VALID,41,VALID,0,
2008-07-13, 03:45:04,VALID,1008.24,VALID,0,VALID,95.1847,VALID,0,VALID,23.2264,VALID,41,VALID,0,
2008-07-13, 03:46:04,VALID,1008.25,VALID,0,VALID,95.1465,VALID,0,VALID,23.2264,VALID,41,VALID,0,
2008-07-13, 03:47:04,VALID,1008.24,VALID,0,VALID,95.1847,VALID,0,VALID,23.2069,VALID,41,VALID,0,
2008-07-13, 03:48:04,VALID,1008.26,VALID,0,VALID,95.177,VALID,0,VALID,23.2069,VALID,41,VALID,0,
2008-07-13, 03:49:04,VALID,1008.25,VALID,0,VALID,95.177,VALID,0,VALID,23.1874,VALID,41,VALID,0,